Regional Weather Roundup
Issued by NWS Wakefield, VA

Home | Current Version | Previous Version | Graphics & Text | Print | Product List | Glossary On
Versions: 1 2 3 4 5 6 7 8 9 10 11 12 13 14 15 16 17 18 19 20 21 22 23 24 25 26
000
ASUS41 KAKQ 270611
RWRAKQ

REGIONAL WEATHER ROUNDUP
NATIONAL WEATHER SERVICE WAKEFIELD VA
200 AM EDT WED JUL 27 2016

Note: "fair" indicates few or no clouds below 12,000 feet with no
significant weather and/or obstructions to visibility. * = Denotes
station may not report precipitation (e.g., rain,snow,etc.),
thunder or fog.

VAZ042-051-052>054-056-270700-
NORTHERN VIRGINIA

CITY           SKY/WX    TMP DP  RH WIND       PRES   REMARKS
WASH NATIONAL  MOCLDY    83  73  72 W7        29.94F
DULLES         MOCLDY    79  71  76 SW5       29.96F
FORT BELVOIR   FAIR      79  72  77 W7        29.94F
QUANTICO       FAIR      78  71  79 NW7       29.94F
FREDERICKSBRG* FAIR      76  74  91 W5        29.94S
STAFFORD*      FAIR      74  71  88 W5        29.99S
WARRENTON      MOCLDY    75  70  83 CALM      29.96F
CULPEPER*      CLOUDY    75  74  96 CALM      29.97F
MANASSAS*      MOCLDY    79  73  83 CALM      29.96S
LEESBURG*      FAIR      81  77  89 W6        29.97F
WINCHESTER     FAIR      77  70  78 S5        29.98S
FRONT ROYAL*   MOCLDY    75  72  88 S3        29.98F
LURAY*         MOCLDY    73  73 100 CALM      30.01S
$$

VAZ048-049-060>072-079>083-270700-
CENTRAL AND SOUTH CENTRAL VIRGINIA

CITY           SKY/WX    TMP DP  RH WIND       PRES   REMARKS
RICHMOND       CLOUDY    74  72  93 VRB3      29.95S
CHESTERFIELD*  FAIR      73  61  64 W6        29.97R
PETERSBURG*    LGT RAIN N/A N/A N/A SW6       29.96S
HANOVER        FAIR      73  70  90 VRB3      29.97R
TAPPAHANNOCK*  FAIR      77  77 100 CALM      29.94S FOG
QUINTON*       MOCLDY    75  75  99 W5        29.94R
CHARLOTTSVILLE MOCLDY    77  73  87 CALM      29.97F
GORDONSVILLE*  MOCLDY    76  73  88 SW3       29.97S
ORANGE*          N/A     77  75  94 CALM      29.98F
LOUISA*        FAIR      77  75  94 CALM      29.96F
BUMPASS*       FAIR      72  72 100 CALM      29.97F
FARMVILLE*     FAIR     N/A N/A N/A CALM      29.96F
CREWE*         FAIR      73  73 100 CALM      29.96F
FORT PICKETT*  FAIR      73  72  98 S9        29.97F
CHASE CITY*    FAIR      73  72  95 CALM      29.99F
CLARKSVILLE*   FAIR      73  73 100 CALM      29.99S
SOUTH HILL*    FAIR      73  73  99 S6        30.00F
LAWRENCEVILLE* MOCLDY    74  74 100 W3        29.97F
EMPORIA*       FLURRIES  73  73 100 CALM      29.97F
$$

VAZ088>098-270700-
SOUTHEAST VIRGINIA

CITY           SKY/WX    TMP DP  RH WIND       PRES   REMARKS
NORFOLK        FAIR      80  74  81 SW9       29.93F
VIRGINIA BEACH CLOUDY    84  73  69 SW8       29.93S
NORFOLK NAVAL  MOCLDY    81  73  76 S8        29.93F THUNDER
WEST POINT*    FAIR      78  76  95 CALM      29.94R
SALUDA*        FAIR      78  78 100 W3        29.92R
NEWPORT NEWS   LGT RAIN  80  75  84 SW6       29.93F
LANGLEY AFB    FAIR      80  75  83 SW7       29.93F
FORT EUSTIS    DRIZZLE   79  76  92 W3        29.92S
WILLIAMSBURG*  FAIR      79  79 100 N5        29.95R
HR EXEC AP*    FAIR      77  73  88 SW3       29.96F
FRANKLIN*      FAIR      76  74  91 SW3       29.96S
US460-WAKEFLD  LGT RAIN  76  73  91 SW7       29.94F FOG
$$

VAZ020-022-025-037-045-270700-
WEST CENTRAL AND SOUTHWEST VIRGINIA

CITY           SKY/WX    TMP DP  RH WIND       PRES   REMARKS
STAUNTON*      FAIR      71  71  99 CALM      30.05S FOG
WAYNESBORO*    FAIR      73  71  94 SW3       30.04S
HOT SPRINGS VA NOT AVBL
LYNCHBURG      FAIR      71  71 100 SW3       30.03F
DANVILLE       LGT RAIN  73  71  93 CALM      29.99F
SOUTH BOSTON*  MOCLDY    73  72  95 CALM      29.99F
MARTINSVILLE   FAIR      74  71  91 CALM      30.04F
ROANOKE        FAIR      76  73  91 NE5       30.04F
BLACKSBURG     FAIR      72  71  96 CALM      30.12F
DUBLIN*        FAIR      74  72  93 CALM      30.10F
MARION*        MOCLDY    72  70  95 CALM      30.15S
HILLSVILLE*    CLOUDY    74  72  93 CALM      30.11F
RICHLANDS*     FAIR      73  72  97 CALM      30.12F
WISE*          FAIR      73  68  83 CALM      30.13F
ABINGDON*      FAIR      74  71  89 CALM      30.10S
$$

MDZ021>025-VAZ099-100-270700-
SOUTHERN MARYLAND AND THE DELMARVA PENINSULA

CITY           SKY/WX    TMP DP  RH WIND       PRES   REMARKS
PATUXENT RIVER PTCLDY    81  76  84 W6        29.91F
BAY BRIDGE APT CLOUDY    84  75  74 CALM      29.91F
LEONARDTOWN      N/A    N/A N/A N/A MISG        N/A
DOVER          NOT AVBL
GEORGETOWN     CLOUDY    78  74  87 CALM      29.93F
EASTON         CLOUDY    84  82  93 CALM      29.95F HX 100
CAMBRIDGE      NOT AVBL
SALISBURY      PTCLDY    76  74  93 CALM      29.91F
OCEAN CITY     PTCLDY    76  74  93 CALM      29.92F
WALLOPS ISLAND FAIR      80  77  90 CALM      29.91F
ACCOMACK*      FAIR      79  75  89 CALM      29.91F FOG
$$

NCZ012>017-030>032-270700-
NORTH CENTRAL AND EASTERN NORTH CAROLINA

CITY           SKY/WX    TMP DP  RH WIND       PRES   REMARKS
ROANOKE RAPIDS HVY RAIN  73  72  94 CALM      29.99S
RALEIGH        CLOUDY    79  75  87 VRB5      29.99R
ELIZABETH CITY CLOUDY    77  75  93 SW5       29.95S
AHOSKIE*       CLOUDY    75  74  97 CALM      29.98F
EDENTON*       CLOUDY    85  79  83 W6        29.97R HX  97
CURRITUCK*     CLOUDY    78  78  99 CALM      29.94F
KILL DEVIL HLS CLOUDY    81  77  88 SW6       29.94F
MANTEO           N/A     82  78  90 W7        29.95F
CAPE HATTERAS  PTCLDY    82  78  88 W9        29.96F
TARBORO*       CLOUDY    81  76  86 NW8       30.00R
GOLDSBORO      PTCLDY    81  80  96 SW6       29.96F
WASHINGTON     CLOUDY    80  74  82 SW5       29.96F
GREENVILLE     CLOUDY    81  77  89 CALM      29.99S
NEW BERN       CLOUDY    79  73  82 SW6       29.99S
WILMINGTON     CLEAR     80  76  87 SW8       29.99F
$$

VAZ048-270700-
ELSEWHERE

CITY           SKY/WX    TMP DP  RH WIND       PRES   REMARKS
HARRISBURG PA  CLOUDY    79  68  69 NW7       29.93S
BALTIMORE      CLOUDY    79  71  76 W6        29.92F
ANNAPOLIS      MOCLDY    84  74  71 NW3       29.91F
ANDREWS AFB    FAIR      81  73  76 W9        29.93F
PHILADELPHIA   CLOUDY    81  74  79 E3        29.93S
GREENSBORO     CLOUDY    81  75  82 N3        30.00F
ROCKY MOUNT    CLOUDY    80  77  90 N14       29.99R
$$

VAZ100-270700-
MARINE

STATION/POSITION TIME  TEMP    WIND        PRES    WAVE   SWELL
                       AIR SEA DIR/SP/G            HT/PER HT/PER
                 (UTC) (F)     (DEG/KT/KT) (MB)    (FT/S) (FT/S)
$$




USA.gov is the U.S. government's official web portal to all federal, state and local government web resources and services.